Вернуться в каталог

SL-16 DEB

АктивенLEO
NORAD 39711·DEBRIS·🇷🇺 Russia

Запущен Dec 25, 1992 с Baikonur Cosmodrome

Loading…

Ближайшие Пролёты (ближайшие 24 часа)

TLE

УстаревшееSource: Space-Track

Эпоха: Sep 6, 2026, 22:26 UTC

1 39711U 92093KB  26249.93499314  .00000158  00000-0  12747-3 0  9997
2 39711  70.8338  92.8938 0092378 187.5416 172.4317 14.03068409633611

Отслеживайте SL-16 DEB в реальном времени с AllMySat

Download on the App Store